Brownwood, TX

9:50 AM CDT on July 25, 2016 (GMT -0500)
Brownwood Regional

Weather History for KBWD - May, 2013

Change the Weather History Date:

Monday, May 13, 2013

  Actual Average (KABI) Record (KABI)
Temperature  
Mean Temperature 67 °F 72 °F  
Max Temperature 86 °F 84 °F 99 °F (1945)
Min Temperature 48 °F 61 °F 37 °F (1971)
Degree Days  
Heating Degree Days 0 1  
Month to date heating degree days 13  
Since 1 July heating degree days 2555  
Cooling Degree Days 2 8  
Month to date cooling degree days 86  
Year to date cooling degree days 219  
Growing Degree Days 17 (Base 50)    
Moisture  
Dew Point 45 °F    
Average Humidity 54    
Maximum Humidity 94    
Minimum Humidity 14    
Precipitation  
Precipitation 0.00 in 0.10 in 1.31 in (2010)
Month to date precipitation 1.13  
Year to date precipitation 6.89  
Sea Level Pressure  
Sea Level Pressure 30.22 in    
Wind  
Wind Speed 4 mph (SSE)    
Max Wind Speed 13 mph    
Max Gust Speed 23 mph    
Visibility 10 miles    
Events      
T = Trace of Precipitation, MM = Missing Value Source: NWS Daily Summary

Daily Weather History Graph

Daily Weather History Graph

Search for Another Location

Airport or City:

Trip Planner

Search our weather history database for the weather conditions in past years. The results will help you decide how hot, cold, wet, or windy it might be!

Date:

Astronomy

May. 13, 2013 Rise Set
Actual Time 6:40 AM CDT 8:24 PM CDT
Civil Twilight 6:13 AM CDT 8:51 PM CDT
Nautical Twilight 5:41 AM CDT 9:23 PM CDT
Astronomical Twilight 5:07 AM CDT 9:57 PM CDT
Moon 9:28 AM CDT (5/13) 11:34 PM CDT (5/13)
Length of Visible Light 14h 37m
Length of Day
13h 44m
Waxing Crescent, 12% of the Moon is Illuminated
May 13
Waxing Crescent
May 17
First Quarter
May 24
Full
May 31
Last Quarter
Jun 8
New

Hourly Weather History & Observations

Time (CDT) Temp. Dew Point Humidity Pressure Visibility Wind Dir Wind Speed Gust Speed Precip Events Conditions
12:15 AM 53.6 °F 50.0 °F 88% 30.24 in 10.0 mi Calm Calm - N/A   Clear
12:35 AM 53.6 °F 50.0 °F 88% 30.24 in 10.0 mi Calm Calm - N/A   Clear
12:55 AM 53.6 °F 50.0 °F 88% 30.23 in 10.0 mi Calm Calm - N/A   Clear
1:15 AM 55.4 °F 50.0 °F 82% 30.23 in 10.0 mi Calm Calm - N/A   Partly Cloudy
1:35 AM 51.8 °F 48.2 °F 88% 30.23 in 10.0 mi ESE 4.6 mph - N/A   Partly Cloudy
1:55 AM 51.8 °F 48.2 °F 88% 30.23 in 10.0 mi ESE 4.6 mph - N/A   Partly Cloudy
2:15 AM 51.8 °F 48.2 °F 88% 30.23 in 10.0 mi ESE 3.5 mph - N/A   Scattered Clouds
2:35 AM 53.6 °F 48.2 °F 82% 30.23 in 10.0 mi Calm Calm - N/A   Partly Cloudy
2:55 AM 50.0 °F 48.2 °F 94% 30.23 in 10.0 mi ENE 3.5 mph - N/A   Partly Cloudy
3:15 AM 50.0 °F 48.2 °F 94% 30.22 in 10.0 mi Calm Calm - N/A   Scattered Clouds
3:35 AM 50.0 °F 48.2 °F 94% 30.22 in 10.0 mi ENE 3.5 mph - N/A   Partly Cloudy
3:55 AM 50.0 °F 48.2 °F 94% 30.22 in 10.0 mi Calm Calm - N/A   Partly Cloudy
4:15 AM 48.2 °F 46.4 °F 93% 30.22 in 10.0 mi SE 3.5 mph - N/A   Partly Cloudy
4:35 AM 48.2 °F 46.4 °F 93% 30.21 in 10.0 mi Calm Calm - N/A   Clear
4:55 AM 50.0 °F 46.4 °F 87% 30.21 in 10.0 mi Calm Calm - N/A   Partly Cloudy
5:15 AM 50.0 °F 46.4 °F 87% 30.22 in 10.0 mi Calm Calm - N/A   Partly Cloudy
5:35 AM 48.2 °F 46.4 °F 93% 30.21 in 10.0 mi Calm Calm - N/A   Partly Cloudy
5:55 AM 48.2 °F 46.4 °F 93% 30.21 in 10.0 mi Calm Calm - N/A   Partly Cloudy
6:15 AM 48.2 °F 46.4 °F 93% 30.22 in 10.0 mi Calm Calm - N/A   Clear
6:35 AM 48.2 °F 46.4 °F 93% 30.23 in 10.0 mi Calm Calm - N/A   Clear
6:55 AM 48.2 °F 46.4 °F 93% 30.23 in 10.0 mi Calm Calm - N/A   Clear
7:15 AM 48.2 °F 46.4 °F 93% 30.24 in 10.0 mi Calm Calm - N/A   Clear
7:35 AM 51.8 °F 48.2 °F 88% 30.24 in 10.0 mi Calm Calm - N/A   Clear
7:55 AM 53.6 °F 48.2 °F 82% 30.25 in 10.0 mi Calm Calm - N/A   Clear
8:15 AM 55.4 °F 50.0 °F 82% 30.25 in 10.0 mi Calm Calm - N/A   Clear
8:35 AM 59.0 °F 50.0 °F 72% 30.26 in 10.0 mi Calm Calm - N/A   Clear
8:55 AM 64.4 °F 48.2 °F 56% 30.26 in 10.0 mi SSW 5.8 mph - N/A   Clear
9:15 AM 66.2 °F 48.2 °F 52% 30.27 in 10.0 mi South 8.1 mph - N/A   Clear
9:35 AM 68.0 °F 50.0 °F 52% 30.27 in 10.0 mi SSW 5.8 mph - N/A   Clear
9:55 AM 71.6 °F 48.2 °F 43% 30.28 in 10.0 mi South 9.2 mph - N/A   Clear
10:15 AM 73.4 °F 48.2 °F 41% 30.27 in 10.0 mi SSW 8.1 mph - N/A   Clear
10:35 AM 73.4 °F 50.0 °F 44% 30.27 in 10.0 mi SW 6.9 mph - N/A   Clear
10:55 AM 75.2 °F 48.2 °F 38% 30.27 in 10.0 mi SW 9.2 mph 16.1 mph N/A   Clear
11:15 AM 75.2 °F 48.2 °F 38% 30.27 in 10.0 mi SW 10.4 mph - N/A   Clear
11:35 AM 77.0 °F 48.2 °F 36% 30.27 in 10.0 mi WSW 11.5 mph - N/A   Clear
11:55 AM 78.8 °F 48.2 °F 34% 30.27 in 10.0 mi South 8.1 mph 19.6 mph N/A   Clear
12:15 PM 80.6 °F 48.2 °F 32% 30.26 in 10.0 mi South 10.4 mph - N/A   Clear
12:35 PM 80.6 °F 46.4 °F 30% 30.25 in 10.0 mi SSW 12.7 mph - N/A   Clear
12:55 PM 80.6 °F 46.4 °F 30% 30.25 in 10.0 mi SW 6.9 mph 17.3 mph N/A   Clear
1:15 PM 82.4 °F 42.8 °F 25% 30.24 in 10.0 mi SSW 10.4 mph 18.4 mph N/A   Clear
1:35 PM 82.4 °F 42.8 °F 25% 30.24 in 10.0 mi SW 10.4 mph 18.4 mph N/A   Clear
1:55 PM 82.4 °F 41.0 °F 23% 30.23 in 10.0 mi SSE 9.2 mph 19.6 mph N/A   Clear
2:15 PM 84.2 °F 39.2 °F 20% 30.22 in 10.0 mi South 9.2 mph 18.4 mph N/A   Clear
2:35 PM 84.2 °F 41.0 °F 22% 30.21 in 10.0 mi South 8.1 mph - N/A   Clear
3:35 PM 84.2 °F 37.4 °F 19% 30.20 in 10.0 mi South 11.5 mph 17.3 mph N/A   Clear
3:55 PM 86.0 °F 37.4 °F 18% 30.19 in 10.0 mi South 8.1 mph 20.7 mph N/A   Clear
4:15 PM 86.0 °F 37.4 °F 18% 30.18 in 10.0 mi South 9.2 mph - N/A   Clear
4:35 PM 86.0 °F 35.6 °F 17% 30.17 in 10.0 mi SSE 12.7 mph 16.1 mph N/A   Clear
4:55 PM 84.2 °F 33.8 °F 16% 30.17 in 10.0 mi South 6.9 mph - N/A   Clear
5:15 PM 86.0 °F 32.0 °F 14% 30.16 in 10.0 mi SSE 12.7 mph 23.0 mph N/A   Clear
5:35 PM 86.0 °F 32.0 °F 14% 30.15 in 10.0 mi SSE 10.4 mph - N/A   Clear
5:55 PM 86.0 °F 35.6 °F 17% 30.15 in 10.0 mi SSE 10.4 mph 16.1 mph N/A   Clear
6:55 PM 84.2 °F 39.2 °F 20% 30.14 in 7.0 mi SE 11.5 mph - N/A   Clear
7:15 PM 82.4 °F 39.2 °F 21% 30.14 in 10.0 mi SSE 9.2 mph - N/A   Clear
7:35 PM 82.4 °F 41.0 °F 23% 30.14 in 10.0 mi SSE 6.9 mph - N/A   Clear
7:55 PM 80.6 °F 41.0 °F 24% 30.15 in 10.0 mi SSE 8.1 mph - N/A   Clear
8:15 PM 77.0 °F 41.0 °F 28% 30.15 in 10.0 mi SE 6.9 mph - N/A   Clear
8:35 PM 75.2 °F 42.8 °F 31% 30.15 in 10.0 mi SE 6.9 mph - N/A   Clear
8:55 PM 71.6 °F 44.6 °F 38% 30.16 in 10.0 mi SE 6.9 mph - N/A   Clear
9:15 PM 71.6 °F 44.6 °F 38% 30.17 in 10.0 mi SE 6.9 mph - N/A   Clear
9:35 PM 71.6 °F 44.6 °F 38% 30.17 in 10.0 mi SE 6.9 mph - N/A   Clear
9:55 PM 68.0 °F 46.4 °F 46% 30.18 in 10.0 mi SE 6.9 mph - N/A   Clear
10:15 PM 68.0 °F 46.4 °F 46% 30.19 in 10.0 mi SE 6.9 mph - N/A   Clear
10:35 PM 68.0 °F 46.4 °F 46% 30.19 in 10.0 mi SE 9.2 mph - N/A   Clear
10:55 PM 69.8 °F 46.4 °F 43% 30.20 in 10.0 mi SE 9.2 mph - N/A   Clear
11:15 PM 69.8 °F 46.4 °F 43% 30.20 in 10.0 mi SE 9.2 mph - N/A   Clear
11:35 PM 69.8 °F 46.4 °F 43% 30.19 in 10.0 mi SE 10.4 mph - N/A   Clear
11:55 PM 68.0 °F 46.4 °F 46% 30.19 in 10.0 mi SE 10.4 mph - N/A   Clear